Theta_e
308 308 308 308 308 309 309 309 310 310 311 311 311 312 313 314 313 315 322 324 320 319 315 315 316 317 316 316 314 311 310 310 313 317 317 318 321 323 325 335 337 338 338 336 345
308 308 308 308 309 309 309 309 310 311 311 312 312 313 315 315 315 321 318 324 322 314 314 314 314 318 314 313 313 311 308 313 313 316 317 317 319 321 323 324 339 343 342 339 339
307 307 308 308 308 309 309 310 310 311 312 312 312 315 316 314 323 325 321 320 315 314 313 315 318 318 314 314 313 313 312 312 314 314 316 319 318 319 323 323 324 346 346 341 341
306 307 307 308 308 309 309 310 311 311 312 312 314 316 315 319 323 320 316 315 315 315 315 317 316 316 314 316 315 316 314 314 316 318 318 319 318 318 321 323 322 339 346 344 342
306 306 307 308 308 309 309 310 311 312 313 312 315 316 316 322 323 320 317 316 315 315 315 316 316 314 316 316 316 317 318 317 316 315 316 316 319 318 318 319 320 322 345 344 342
306 306 307 308 308 309 310 311 311 313 314 313 316 315 324 327 323 319 318 318 319 319 318 315 316 314 316 316 317 317 317 316 316 316 315 318 318 320 320 327 341 343 342 333 340
306 306 307 307 308 309 310 311 312 315 315 314 316 317 323 320 322 321 321 321 320 320 320 321 318 317 316 316 316 316 317 314 316 316 318 319 330 333 332 346 347 348 347 346 338
305 306 307 308 308 310 311 313 315 317 315 314 315 318 322 328 322 321 321 321 321 320 320 321 321 316 317 316 317 319 316 316 316 319 320 326 333 336 341 342 341 343 346 342 341
306 306 307 308 309 310 314 316 319 317 314 314 323 322 326 324 319 320 321 320 321 322 321 321 319 316 315 316 314 314 317 316 317 321 328 329 333 334 335 337 339 338 335 335 339
306 307 308 308 309 311 317 319 320 318 322 323 323 323 325 327 321 322 323 321 322 319 318 319 315 316 313 314 318 317 318 319 321 326 331 332 334 333 332 336 338 339 339 335 343
306 307 308 308 309 313 318 317 312 316 317 323 323 324 324 323 322 322 322 321 320 318 318 318 318 318 318 316 317 319 321 322 321 331 333 335 337 336 335 336 337 339 339 341 340
307 308 308 308 310 318 317 314 315 316 315 316 317 318 321 322 322 323 322 319 319 319 320 317 319 319 318 322 322 322 323 319 321 332 333 337 339 337 336 340 333 336 340 343 349
308 309 309 309 314 317 317 317 316 317 316 320 321 321 318 321 322 324 318 319 319 318 318 317 320 321 322 322 322 324 320 320 321 326 333 332 333 337 337 338 341 342 342 346 347
308 309 309 309 314 312 318 316 316 317 323 327 320 318 320 320 321 322 320 321 321 321 321 320 321 322 323 324 321 322 322 322 323 322 321 327 335 336 337 341 341 343 342 341 344
308 310 310 308 311 310 317 315 317 319 334 325 317 320 319 319 322 322 321 321 321 320 321 322 323 321 322 322 322 321 323 321 322 321 330 333 336 335 336 340 341 341 339 338 338
309 310 310 310 308 315 313 316 317 326 332 322 320 319 318 320 321 321 321 320 320 321 321 321 321 321 322 323 322 321 325 324 327 324 329 332 331 333 339 339 344 341 337 335 334
309 311 310 309 309 312 315 316 319 331 328 323 320 319 318 319 321 321 321 320 320 323 326 328 322 322 324 322 321 323 323 325 325 334 332 331 339 338 338 338 338 334 335 333 331
311 311 311 311 313 315 316 320 330 330 329 324 320 318 320 321 321 321 322 324 324 324 326 328 324 325 325 323 323 326 323 325 329 328 330 333 341 338 337 334 335 327 325 330 329
311 311 310 312 318 316 317 323 327 327 326 325 322 320 320 323 322 327 327 325 324 323 326 328 330 327 326 325 323 326 325 324 324 326 330 334 335 333 334 333 331 327 325 325 325
310 310 315 317 318 317 318 323 325 325 326 327 328 325 322 323 323 325 327 326 326 326 324 327 330 330 326 324 324 323 323 323 323 329 331 331 337 336 338 335 327 325 324 323 323
309 316 320 319 318 315 319 320 323 323 325 326 326 327 326 322 325 328 328 325 325 326 324 324 324 325 324 325 326 323 321 322 322 323 328 328 336 333 334 329 327 325 323 322 321
313 319 321 318 315 315 317 320 322 323 323 325 325 326 327 328 328 326 326 326 325 325 322 323 322 327 329 327 324 324 325 319 321 323 323 325 335 328 328 326 325 323 323 321 319
316 316 320 318 317 318 320 326 323 322 324 324 324 324 325 327 329 327 325 323 320 321 319 322 321 322 325 323 323 324 323 323 320 319 323 326 335 328 328 327 324 324 322 321 320
312 321 317 313 313 318 321 324 321 323 323 324 324 323 323 323 323 326 324 323 321 321 326 324 322 323 326 326 324 324 324 322 320 320 322 329 333 329 326 325 324 322 321 319 317
311 316 319 318 316 315 317 322 323 322 320 322 322 323 325 326 329 329 323 323 324 324 328 325 329 328 327 327 326 326 325 324 324 323 327 330 329 325 324 323 321 319 318 316 315
312 317 315 321 322 317 316 320 324 323 321 322 323 328 327 330 329 329 328 329 328 324 327 322 326 327 327 327 326 327 326 325 326 326 327 326 325 321 320 320 316 315 314 314 314
312 315 315 318 321 321 318 321 323 321 327 328 324 325 325 325 323 322 321 321 322 324 325 325 325 327 328 326 327 328 325 328 326 325 325 326 322 317 315 316 314 313 312 312 313
Wind_Speed
17 18 19 20 21 22 24 27 27 28 23 23 24 23 20 21 21 10 4 3 3 6 8 9 10 12 9 4 3 4 3 4 6 3 8 7 6 6 1 8 3 8 6 10 28
17 18 20 21 22 24 25 27 28 26 23 25 23 20 18 19 16 7 7 7 9 8 5 4 6 9 5 4 3 4 3 7 7 4 6 7 6 5 7 3 2 4 8 27 23
18 19 21 23 24 25 26 27 29 26 23 25 20 17 16 14 4 5 3 6 6 5 5 6 8 2 3 1 5 4 7 6 7 9 7 4 10 6 5 6 4 8 13 16 17
19 21 23 24 25 26 28 28 28 25 25 22 16 15 14 4 1 3 2 3 4 4 5 5 5 6 3 4 3 4 8 6 7 3 4 4 3 8 2 5 6 10 20 17 14
20 23 24 25 26 27 28 28 27 23 24 17 13 13 5 3 7 6 4 3 4 6 5 2 3 3 2 4 7 4 4 8 8 9 5 7 6 2 9 11 13 9 18 19 19
21 23 25 27 28 28 28 30 25 21 22 13 11 11 2 2 2 6 4 5 7 7 5 6 6 8 2 4 0 3 5 9 8 10 5 4 5 3 10 16 20 30 26 12 12
23 25 26 28 29 29 29 29 25 21 19 10 8 6 1 9 4 6 4 7 10 13 3 8 3 7 4 10 4 6 7 9 11 6 5 4 20 21 14 17 21 20 20 25 21
23 25 25 28 30 30 31 28 28 21 10 6 6 1 5 7 3 11 12 15 15 19 17 13 8 3 3 3 8 5 3 2 8 5 8 14 10 24 15 24 18 18 14 14 12
25 27 29 30 31 32 29 34 14 4 2 2 3 1 8 7 6 14 16 13 14 18 17 12 2 1 6 3 6 5 4 4 8 10 5 9 2 7 9 22 19 18 16 14 11
26 28 29 30 30 29 29 16 8 3 2 3 1 3 5 3 6 3 8 9 3 2 5 1 4 3 4 5 3 7 5 4 4 6 14 12 6 4 8 18 16 18 19 14 15
27 29 29 30 30 22 27 6 7 4 2 4 3 4 9 2 2 3 5 2 3 4 2 3 3 5 11 7 7 4 3 4 4 10 10 5 7 8 8 12 15 17 20 16 9
26 28 29 30 26 13 18 6 3 6 7 7 11 8 20 14 3 5 7 1 1 5 1 5 5 12 9 4 5 8 2 6 3 10 12 7 5 7 9 4 13 14 17 12 16
26 28 29 30 14 9 8 16 21 15 1 8 6 5 6 5 3 6 7 1 5 6 5 7 7 8 2 6 5 2 3 3 1 8 9 10 8 9 5 9 17 5 8 5 16
25 26 28 31 4 20 7 23 21 17 4 5 3 5 4 4 3 5 8 3 4 4 4 3 3 2 6 3 2 3 3 3 5 4 4 1 1 5 8 7 4 8 4 13 13
24 24 26 17 15 10 11 23 23 2 3 5 3 5 5 5 1 2 1 3 4 8 2 5 0 4 5 3 3 7 4 5 2 4 5 8 5 4 4 8 13 5 9 12 14
23 23 25 12 18 7 20 25 3 3 2 3 5 5 4 4 3 3 1 2 4 4 2 5 4 2 4 4 5 6 4 7 5 4 4 6 6 6 3 3 10 11 7 10 14
24 24 24 22 6 14 17 5 4 2 0 5 5 5 5 4 4 4 2 2 3 3 5 7 2 2 2 5 7 10 7 4 5 5 3 4 9 4 7 6 7 6 6 6 8
26 27 19 18 14 15 8 4 1 3 6 3 5 6 6 4 4 2 4 2 3 4 2 4 5 1 1 3 3 3 6 5 1 2 3 6 4 3 5 7 6 6 7 7 8
27 19 13 4 2 2 4 2 4 4 4 2 5 4 4 5 5 5 4 3 5 4 4 6 5 6 6 0 5 5 6 1 6 3 4 1 3 2 4 7 7 6 8 6 7
22 12 9 2 5 3 4 5 4 4 5 5 5 1 6 5 4 4 3 5 4 7 2 4 3 4 7 8 7 7 2 6 5 2 2 3 2 3 4 3 4 6 7 7 5
8 4 1 10 8 4 2 6 5 4 6 4 4 3 2 5 5 4 4 4 7 6 9 3 3 6 4 6 3 6 5 6 5 4 4 0 4 2 3 1 5 4 6 8 8
4 2 2 9 2 1 2 4 6 3 4 3 3 3 4 6 6 5 4 3 3 4 3 3 4 1 1 3 3 4 3 5 5 5 1 4 3 4 3 8 8 9 11 10 8
2 3 1 3 2 3 5 6 4 6 4 4 3 4 5 4 6 7 5 3 7 5 3 4 4 4 8 7 7 5 4 3 4 3 2 5 3 6 3 8 8 10 8 7 8
1 2 3 4 1 2 3 5 3 3 4 2 3 5 6 6 6 5 5 2 3 4 5 6 3 5 4 5 4 7 10 5 4 4 2 3 4 8 9 8 8 8 7 6 6
1 4 4 2 4 5 2 4 5 2 4 5 6 5 1 6 6 5 5 4 7 6 5 5 3 4 3 5 5 7 8 9 11 2 5 5 10 3 4 6 5 5 7 8 8
2 1 4 3 4 6 5 3 3 4 1 3 7 9 11 5 5 4 6 3 2 8 4 5 2 6 4 3 11 9 9 11 10 11 11 9 8 4 4 3 5 4 5 5 5
3 6 3 4 5 3 4 3 3 6 5 5 13 7 12 6 7 8 7 4 5 5 1 3 2 3 4 7 3 7 8 11 10 12 3 5 3 4 6 4 4 6 7 7 7
Wind_Direction
353 342 339 336 339 342 341 339 337 335 336 339 332 326 330 327 327 312 264 247 280 295 309 302 303 318 309 265 198 126 59 300 255 279 275 298 346 334 101 119 185 193 165 150 162
343 337 333 337 340 341 339 338 336 333 340 336 332 327 333 329 327 278 248 260 275 278 275 296 314 15 321 277 334 96 113 235 205 242 242 302 319 320 12 56 27 82 75 146 147
337 339 337 339 340 340 336 337 335 332 340 334 332 330 335 328 323 263 323 248 248 243 251 298 310 176 243 356 230 198 219 232 270 237 223 307 324 347 2 352 146 168 148 155 145
338 339 340 340 338 338 335 336 332 332 338 331 332 338 337 351 143 280 196 194 219 249 278 316 22 359 291 285 270 212 250 197 274 251 313 299 285 330 278 266 305 165 165 164 157
339 341 340 339 338 335 334 332 330 331 337 325 331 345 354 355 252 216 195 186 227 259 258 88 325 227 253 283 327 191 300 298 274 299 307 312 291 270 299 305 358 0 173 166 176
343 340 340 340 335 334 334 327 326 332 333 317 331 349 18 310 258 172 194 214 240 245 258 150 230 248 244 302 198 281 292 282 300 299 298 213 289 84 287 54 70 72 67 75 189
338 341 343 335 333 336 333 324 324 328 320 308 331 4 17 239 190 168 193 260 264 255 257 276 276 41 347 327 340 320 342 327 294 284 278 92 27 19 47 65 53 62 65 66 87
338 342 338 336 338 338 330 324 320 317 299 301 330 358 256 301 208 223 231 260 274 274 242 293 307 346 146 299 339 312 29 345 281 327 23 89 26 26 43 54 34 20 31 66 88
342 342 343 341 343 337 330 327 329 341 292 299 46 83 275 326 234 238 240 245 281 253 252 271 349 263 358 66 350 355 254 259 323 357 81 77 42 355 53 56 38 19 6 350 14
343 343 343 342 340 338 336 347 21 100 89 73 332 336 280 249 220 245 244 265 280 315 330 93 51 16 10 62 277 287 3 349 96 13 70 86 74 322 19 57 43 18 6 339 43
342 342 344 340 340 349 350 14 12 346 28 210 206 260 282 303 267 238 250 272 347 20 246 309 55 254 264 213 217 271 342 81 105 152 67 56 49 327 8 44 48 18 356 327 351
343 342 342 337 340 356 356 31 351 285 311 254 252 245 260 266 318 278 190 173 152 250 29 19 224 244 242 314 327 331 81 333 90 120 95 84 23 341 27 28 72 12 330 314 34
340 343 341 338 343 356 347 1 0 352 275 293 225 207 229 153 241 259 153 210 250 282 291 180 227 227 317 0 47 25 63 356 307 72 83 98 12 355 344 55 83 244 290 44 75
338 340 341 342 14 339 320 343 348 342 37 273 210 255 162 162 279 208 204 164 331 280 291 214 294 53 31 15 116 11 270 330 319 67 160 95 165 323 341 358 60 94 247 88 85
332 337 334 344 321 313 324 332 335 51 74 167 185 185 148 146 214 262 215 38 258 265 355 259 349 47 36 273 345 245 322 312 304 115 105 7 83 315 3 6 21 343 76 79 85
327 330 325 334 308 293 330 326 17 45 172 205 148 171 127 235 258 199 166 45 259 300 306 241 274 122 213 306 320 274 348 30 40 63 56 254 121 334 331 88 86 276 86 83 81
322 321 312 302 272 314 327 3 46 138 117 162 170 165 188 234 208 163 106 52 338 35 351 328 234 284 65 26 358 52 54 360 8 12 178 260 57 219 286 111 177 155 120 108 102
321 317 307 283 289 300 344 50 135 265 262 221 142 160 192 206 225 192 72 60 333 81 93 5 35 166 358 136 203 25 112 138 251 269 283 359 139 217 215 338 283 110 115 87 83
323 321 303 292 239 221 64 81 227 290 304 354 124 151 235 209 119 104 98 52 39 27 87 23 335 332 340 288 91 313 35 250 107 13 74 325 30 71 254 290 43 50 80 106 102
333 318 285 169 200 111 70 242 258 310 358 29 55 358 172 186 117 97 65 336 19 30 103 333 7 17 312 45 16 85 274 27 15 65 24 338 162 242 177 265 41 51 80 87 112
321 337 256 145 153 53 184 245 280 334 50 53 23 330 309 206 93 77 37 356 15 1 62 32 73 303 32 15 312 6 35 56 109 119 151 183 316 284 189 244 85 59 31 66 68
349 344 155 179 34 239 221 225 295 300 5 334 54 21 12 76 58 87 82 55 358 342 53 15 134 308 240 245 89 114 117 109 110 283 158 127 298 317 56 36 48 45 44 61 58
317 269 225 166 203 295 290 283 263 4 357 342 13 60 33 115 90 117 96 330 49 57 61 348 14 18 353 349 9 32 341 119 111 81 204 112 213 19 68 46 35 70 61 50 37
336 325 327 42 225 205 309 289 309 349 348 47 33 62 56 45 72 140 126 97 54 85 100 83 75 134 169 238 249 325 325 12 107 95 110 45 101 5 10 42 40 44 44 36 32
177 251 211 245 274 212 6 279 309 331 353 26 10 48 71 56 54 52 62 103 35 8 42 83 53 14 254 277 351 17 72 67 63 42 89 118 93 23 5 80 54 31 23 18 7
192 262 341 294 293 165 177 273 328 291 66 359 68 56 79 82 110 82 110 72 105 22 49 7 348 29 316 30 61 45 31 58 48 75 100 107 63 358 50 106 55 23 7 357 335
254 278 131 281 326 105 220 225 274 358 6 34 122 85 90 140 138 144 143 117 121 124 86 74 77 44 296 337 28 37 350 85 71 41 93 68 8 347 33 58 61 12 351 328 313